Tracking 20621 objects as of 30-Mar-2020
HD Live streaming from Space Station
objects crossing your sky now

PEGASUS DEB


PEGASUS DEB is no longer on orbit


NORAD ID: 24102
Int'l Code: 1994-029EZ
Perigee: N/A
Apogee: N/A
Inclination: N/A
Period: N/A
Semi major axis: N/A
RCS: N/A
Launch date: May 19, 1994
Source: United States (US)
Launch site: AIR FORCE WESTERN TEST RANGE (AFWTR)
Decay date: 2019-07-21

Note: This is SATELLITE DEBRIS
aabbcc
Your satellite tracking list
Your tracking list is empty




NASA's NSSDC Master Catalog

Two Line Element Set (TLE):
1 24102U 94029EZ  19201.53387135  .11684773 -11560-5  16819-3 0  9995
2 24102  81.8352 317.1339 0013807 277.5739  82.3994 16.48030868297416
Source of the keplerian elements: AFSPC